Forks, WA

8:21 PM PST on February 25, 2017 (GMT -0800)
Quillayute

Weather History for KUIL - February, 2014

Change the Weather History Date:

Monday, February 10, 2014

  Actual Average Record
Temperature  
Mean Temperature 46 °F 42 °F  
Max Temperature 51 °F 49 °F 65 °F (1970)
Min Temperature 40 °F 35 °F 19 °F (1989)
Degree Days  
Heating Degree Days 19 23  
Month to date heating degree days 281 230  
Since 1 July heating degree days 2839 3435  
Cooling Degree Days 0 0  
Month to date cooling degree days 0 0  
Year to date cooling degree days 0 0  
Moisture  
Dew Point 44 °F    
Average Humidity 88    
Maximum Humidity 93    
Minimum Humidity 83    
Precipitation  
Precipitation 1.00 in 0.39 in 2.22 in (1990)
Month to date precipitation 1.26 3.88  
Year to date precipitation 13.19 18.49  
Sea Level Pressure  
Sea Level Pressure 29.95 in    
Wind  
Wind Speed 10 mph (SSW)    
Max Wind Speed 17 mph    
Max Gust Speed 26 mph    
Visibility 2 miles    
Events Fog , Rain    
T = Trace of Precipitation, MM = Missing Value Source: NWS Daily Summary

Daily Weather History Graph

Daily Weather History Graph

Search for Another Location

Airport or City:

Trip Planner

Search our weather history database for the weather conditions in past years. The results will help you decide how hot, cold, wet, or windy it might be!

Date:

Astronomy

Feb. 10, 2014 Rise Set
Actual Time 7:32 AM PST 5:33 PM PST
Civil Twilight 7:00 AM PST 6:05 PM PST
Nautical Twilight 6:23 AM PST 6:42 PM PST
Astronomical Twilight 5:47 AM PST 7:18 PM PST
Moon 1:59 PM PST (2/10) 4:37 AM PST (2/10)
Length of Visible Light 11h 05m
Length of Day
10h 00m
Waxing Gibbous, 85% of the Moon is Illuminated
Feb 10
Waxing Gibbous
Feb 14
Full
Feb 22
Last Quarter
Mar 1
New
Mar 8
First Quarter

Hourly Weather History & Observations

Time (PST) Temp. Windchill Dew Point Humidity Pressure Visibility Wind Dir Wind Speed Gust Speed Precip Events Conditions
12:53 AM 39.9 °F 35.8 °F 37.0 °F 89% 29.97 in 3.0 mi East 5.8 mph - 0.03 in Rain Rain
1:18 AM 41.0 °F 36.4 °F 37.0 °F 86% 29.96 in 2.5 mi East 6.9 mph - 0.06 in Rain Rain
1:50 AM 41.0 °F 37.1 °F 37.4 °F 87% 29.95 in 2.5 mi East 5.8 mph - 0.13 in Rain Rain
1:53 AM 41.0 °F 36.4 °F 37.9 °F 89% 29.96 in 2.5 mi East 6.9 mph - 0.13 in Rain Light Rain
2:01 AM 41.0 °F 35.8 °F 37.9 °F 89% 29.95 in 3.0 mi ENE 8.1 mph - 0.01 in Rain Light Rain
2:12 AM 41.0 °F 35.2 °F 37.9 °F 89% 29.94 in 2.5 mi East 9.2 mph - 0.04 in Rain Rain
2:34 AM 42.1 °F 37.1 °F 39.0 °F 89% 29.93 in 4.0 mi East 8.1 mph - 0.08 in Rain Light Rain
2:43 AM 42.1 °F 37.7 °F 39.0 °F 89% 29.93 in 3.0 mi East 6.9 mph - 0.09 in Rain Rain
2:50 AM 42.8 °F 37.5 °F 39.2 °F 87% 29.93 in 2.0 mi East 9.2 mph - 0.10 in Rain Rain
2:53 AM 42.1 °F 36.6 °F 39.0 °F 89% 29.94 in 2.0 mi ENE 9.2 mph - 0.11 in Rain Heavy Rain
3:01 AM 42.1 °F 38.4 °F 39.0 °F 89% 29.93 in 2.5 mi ENE 5.8 mph - 0.04 in Rain Rain
3:17 AM 43.0 °F 38.8 °F 39.9 °F 89% 29.92 in 2.5 mi ENE 6.9 mph - 0.10 in Rain Rain
3:43 AM 44.1 °F 40.8 °F 41.0 °F 89% 29.91 in 3.0 mi ENE 5.8 mph - 0.15 in Rain Light Rain
3:53 AM 44.1 °F 41.5 °F 39.9 °F 85% 29.92 in 3.0 mi ENE 4.6 mph - 0.15 in Rain Light Rain
3:59 AM 44.1 °F 42.5 °F 41.0 °F 89% 29.92 in 2.0 mi East 3.5 mph - 0.00 in Rain Light Rain
4:06 AM 44.1 °F 41.5 °F 41.0 °F 89% 29.91 in 1.2 mi East 4.6 mph - 0.01 in Rain Rain
4:20 AM 45.0 °F 41.2 °F 41.0 °F 86% 29.91 in 1.5 mi ESE 6.9 mph - 0.03 in Rain Light Rain
4:27 AM 44.1 °F 40.1 °F 41.0 °F 89% 29.91 in 1.2 mi Variable 6.9 mph - 0.04 in Rain Light Rain
4:44 AM 46.0 °F 41.9 °F 43.0 °F 89% 29.90 in 2.0 mi SSE 8.1 mph - 0.07 in Rain Light Rain
4:53 AM 46.9 °F - 44.1 °F 90% 29.91 in 2.5 mi Variable 6.9 mph - 0.08 in Rain Rain
5:04 AM 46.9 °F - 44.1 °F 90% 29.90 in 2.0 mi Variable 4.6 mph - 0.02 in Rain Rain
5:38 AM 46.9 °F - 44.1 °F 90% 29.88 in 1.5 mi SSE 9.2 mph 23.0 mph 0.08 in Rain Light Rain
5:47 AM 46.4 °F 41.9 °F 44.6 °F 93% 29.88 in 2.0 mi SSE 9.2 mph 23.0 mph 0.09 in Rain Light Rain
5:53 AM 46.9 °F - 44.1 °F 90% 29.89 in 2.5 mi SSE 10.4 mph 20.7 mph 0.09 in Rain Light Rain
6:02 AM 46.9 °F - 44.1 °F 90% 29.88 in 3.0 mi SSE 9.2 mph 19.6 mph 0.01 in Rain Light Rain
6:19 AM 46.9 °F - 44.1 °F 90% 29.88 in 2.0 mi South 9.2 mph - 0.01 in Rain Light Rain
6:29 AM 46.9 °F - 44.1 °F 90% 29.88 in 2.0 mi SSE 12.7 mph 25.3 mph 0.01 in Rain Light Rain
6:35 AM 46.9 °F - 44.1 °F 90% 29.88 in 1.8 mi South 11.5 mph 25.3 mph 0.01 in Rain Light Rain
6:50 AM 46.4 °F 41.9 °F 44.6 °F 93% 29.88 in 1.2 mi South 9.2 mph 23.0 mph 0.04 in Rain Light Rain
6:53 AM 46.9 °F - 44.1 °F 90% 29.89 in 1.2 mi South 12.7 mph 23.0 mph 0.04 in Rain Light Rain
6:58 AM 46.9 °F - 44.1 °F 90% 29.88 in 2.0 mi South 8.1 mph 20.7 mph 0.00 in Rain Light Rain
7:14 AM 46.9 °F - 44.1 °F 90% 29.89 in 1.5 mi SSW 10.4 mph 20.7 mph 0.01 in Rain Light Rain
7:45 AM 48.0 °F - 45.0 °F 89% 29.90 in 1.2 mi South 13.8 mph 23.0 mph 0.03 in Rain Rain
7:53 AM 48.0 °F - 45.0 °F 89% 29.90 in 1.0 mi South 9.2 mph 23.0 mph 0.09 in Rain Rain
8:01 AM 48.0 °F - 45.0 °F 89% 29.90 in 1.0 mi South 11.5 mph 20.7 mph 0.00 in Rain Light Rain
8:11 AM 48.0 °F - 45.0 °F 89% 29.90 in 1.0 mi SSW 11.5 mph 26.5 mph 0.01 in Rain Light Rain
8:18 AM 48.0 °F - 45.0 °F 89% 29.90 in 1.0 mi SSW 10.4 mph 21.9 mph 0.02 in Rain Light Rain
8:25 AM 48.0 °F - 45.0 °F 89% 29.90 in 0.8 mi SW 11.5 mph 21.9 mph 0.02 in Rain Light Rain
8:33 AM 48.0 °F - 45.0 °F 89% 29.90 in 1.0 mi South 10.4 mph 18.4 mph 0.03 in Rain Light Rain
8:53 AM 48.0 °F - 45.0 °F 89% 29.92 in 1.0 mi SSW 9.2 mph - 0.04 in Rain Light Rain
9:00 AM 48.0 °F - 46.0 °F 93% 29.92 in 0.5 mi SW 9.2 mph 16.1 mph 0.01 in Fog , Rain Light Rain
9:12 AM 48.9 °F - 46.0 °F 90% 29.92 in 0.2 mi South 11.5 mph 18.4 mph 0.03 in Fog , Rain Light Rain
9:23 AM 48.9 °F - 46.0 °F 90% 29.93 in 0.5 mi South 8.1 mph 18.4 mph 0.04 in Fog , Rain Rain
9:34 AM 48.9 °F - 46.0 °F 90% 29.93 in 1.5 mi South 9.2 mph 17.3 mph 0.07 in Rain Light Rain
9:41 AM 48.9 °F - 46.0 °F 90% 29.94 in 1.0 mi SW 9.2 mph - 0.07 in Rain Light Rain
9:53 AM 48.9 °F - 46.0 °F 90% 29.95 in 0.8 mi SW 12.7 mph 21.9 mph 0.08 in Rain Light Rain
10:13 AM 50.0 °F - 46.9 °F 89% 29.96 in 1.5 mi WSW 12.7 mph 21.9 mph 0.00 in Rain Light Rain
10:16 AM 50.0 °F - 46.9 °F 89% 29.96 in 3.0 mi WSW 15.0 mph - 0.00 in   Overcast
10:32 AM 50.0 °F - 46.9 °F 89% 29.97 in 4.0 mi SW 11.5 mph - 0.00 in   Overcast
10:39 AM 50.0 °F - 46.9 °F 89% 29.97 in 4.0 mi SW 11.5 mph - 0.00 in   Overcast
10:49 AM 51.8 °F - 46.4 °F 82% 29.97 in 4.0 mi SSW 10.4 mph - 0.00 in   Overcast
10:53 AM 51.1 °F - 46.9 °F 86% 29.98 in 4.0 mi SW 8.1 mph - 0.00 in   Overcast
11:53 AM 50.0 °F - 46.0 °F 86% 29.99 in 3.0 mi SSW 8.1 mph - N/A   Overcast
12:03 PM 50.0 °F - 46.0 °F 86% 29.99 in 2.5 mi SSW 10.4 mph - 0.00 in Rain Light Rain
12:17 PM 50.0 °F - 46.0 °F 86% 29.98 in 3.0 mi SSW 10.4 mph - 0.00 in   Overcast
12:25 PM 50.0 °F - 46.0 °F 86% 29.98 in 2.5 mi SSW 11.5 mph 20.7 mph 0.00 in Rain Light Rain
12:42 PM 50.0 °F - 46.0 °F 86% 29.98 in 1.5 mi South 12.7 mph 21.9 mph 0.01 in Rain Light Rain
12:53 PM 48.9 °F - 46.0 °F 90% 29.99 in 1.5 mi SSW 11.5 mph 19.6 mph 0.02 in Rain Light Rain
1:00 PM 48.9 °F - 46.0 °F 90% 29.98 in 0.8 mi South 12.7 mph 17.3 mph 0.02 in Rain Heavy Rain
1:17 PM 48.9 °F - 46.0 °F 90% 29.98 in 1.0 mi South 12.7 mph 21.9 mph 0.10 in Rain Rain
1:25 PM 48.9 °F - 46.0 °F 90% 29.98 in 2.0 mi SSW 10.4 mph 21.9 mph 0.11 in Rain Light Rain
1:30 PM 48.9 °F - 46.0 °F 90% 29.98 in 3.0 mi SSW 11.5 mph - 0.11 in Rain Light Rain
1:38 PM 48.9 °F - 46.0 °F 90% 29.98 in 2.0 mi SSW 11.5 mph 19.6 mph 0.11 in Rain Light Rain
1:53 PM 48.9 °F - 46.0 °F 90% 29.98 in 2.0 mi SSW 12.7 mph 24.2 mph 0.11 in   Overcast
2:04 PM 48.9 °F - 46.0 °F 90% 29.98 in 1.8 mi SW 12.7 mph - 0.00 in Rain Light Rain
2:30 PM 50.0 °F - 46.9 °F 89% 29.98 in 2.5 mi SW 12.7 mph 21.9 mph 0.00 in Rain Light Rain
2:53 PM 50.0 °F - 46.9 °F 89% 29.99 in 2.0 mi SW 13.8 mph 20.7 mph 0.01 in Rain Light Rain
3:06 PM 48.9 °F - 46.0 °F 90% 29.98 in 3.0 mi SW 6.9 mph 17.3 mph 0.01 in Rain Light Rain
3:53 PM 48.9 °F - 45.0 °F 86% 30.00 in 4.0 mi SSW 4.6 mph - 0.01 in   Overcast
4:45 PM 48.9 °F - 46.0 °F 90% 30.00 in 3.0 mi SSW 8.1 mph - N/A   Overcast
4:53 PM 48.9 °F - 46.0 °F 90% 30.00 in 2.0 mi SSW 9.2 mph - N/A   Overcast
4:57 PM 48.9 °F - 46.0 °F 90% 30.00 in 1.8 mi South 9.2 mph - N/A   Overcast
5:31 PM 48.9 °F - 46.0 °F 90% 30.00 in 2.5 mi SSW 8.1 mph - N/A   Overcast
5:46 PM 48.9 °F - 46.0 °F 90% 30.00 in 3.0 mi SSW 10.4 mph - N/A   Overcast
5:53 PM 48.9 °F - 46.0 °F 90% 30.01 in 2.5 mi SSW 9.2 mph - N/A   Overcast
6:44 PM 50.0 °F - 46.9 °F 89% 30.00 in 3.0 mi SSW 11.5 mph 21.9 mph N/A   Overcast
6:53 PM 50.0 °F - 46.0 °F 86% 30.00 in 3.0 mi SSW 11.5 mph 20.7 mph N/A   Overcast
7:16 PM 48.9 °F - 46.0 °F 90% 29.99 in 4.0 mi SSW 15.0 mph 24.2 mph N/A   Overcast
7:31 PM 48.9 °F - 45.0 °F 86% 29.99 in 4.0 mi SSW 12.7 mph 24.2 mph N/A   Overcast
7:53 PM 48.9 °F - 44.1 °F 83% 29.99 in 6.0 mi SSW 9.2 mph 20.7 mph 0.00 in   Haze
7:56 PM 48.9 °F - 45.0 °F 86% 29.99 in 5.0 mi SSW 10.4 mph 18.4 mph N/A   Overcast
8:14 PM 48.9 °F - 45.0 °F 86% 29.99 in 4.0 mi SSW 10.4 mph - N/A   Overcast
8:37 PM 48.9 °F - 46.0 °F 90% 29.99 in 2.5 mi SSW 12.7 mph 23.0 mph 0.01 in Rain Light Rain
8:44 PM 48.9 °F - 46.0 °F 90% 29.99 in 4.0 mi SW 15.0 mph 20.7 mph 0.01 in   Overcast
8:51 PM 48.2 °F - 46.4 °F 93% 29.99 in 3.0 mi SW 11.5 mph 24.2 mph 0.01 in Rain Light Rain
8:53 PM 48.9 °F - 46.0 °F 90% 30.00 in 3.0 mi SW 15.0 mph 24.2 mph 0.01 in Rain Light Rain
9:34 PM 48.9 °F - 46.0 °F 90% 30.01 in 4.0 mi SW 10.4 mph 24.2 mph 0.00 in   Overcast
9:53 PM 50.0 °F - 46.0 °F 86% 30.02 in 4.0 mi SW 15.0 mph 20.7 mph 0.00 in   Overcast
10:06 PM 50.0 °F - 46.0 °F 86% 30.02 in 4.0 mi WSW 12.7 mph - N/A   Overcast
10:15 PM 50.0 °F - 46.0 °F 86% 30.03 in 4.0 mi WSW 11.5 mph - N/A   Overcast
10:49 PM 48.2 °F - 44.6 °F 87% 30.04 in 4.0 mi SW 9.2 mph - N/A   Scattered Clouds
10:53 PM 48.9 °F - 45.0 °F 86% 30.04 in 4.0 mi SW 12.7 mph - N/A   Partly Cloudy
11:53 PM 48.9 °F - 44.1 °F 83% 30.06 in 4.0 mi SW 9.2 mph - N/A   Haze